Location: Bishopstone
(51.0167°N, 1.9000°W)
Time: 23:13:21
(UTC+00:00)

Cosmos 676 Rocket - Pass Details

Date: 16 September 2019
Orbit: 755 x 783 km, 74.0° (Epoch: 21 October)

Event Time Altitude Azimuth Distance (km) Brightness Sun altitude
Rises 20:14:14 0° 336° (NNW) 3,269 8.1 -17.9°
Reaches altitude 10° 20:16:40 10° 340° (NNW) 2,333 7.2 -18.3°
Maximum altitude 20:21:56 64° 62° (ENE) 852 4.0 -19.0°
Enters shadow 20:23:53 37° 129° (SE) 1,173 4.4 -19.3°
